Miscellaneous Local Product
Issued by NWS Hastings, NE

Home | Current Version | Previous Version | Graphics & Text | Print | Product List | Glossary On
Versions: 1 2 3 4 5 6 7 8 9 10 11 12 13 14 15 16 17 18 19 20 21 22 23 24 25 26 27 28 29 30 31 32 33 34 35 36 37 38 39 40 41 42 43 44 45 46 47 48 49 50
000
AXUS43 KGID 281202
MISGRI

GID CWA HOURLY WEATHER ROUNDUP
NATIONAL WEATHER SERVICE HASTINGS NE
700 AM CDT THU MAY 28 2015

NOTE: "FAIR" INDICATES FEW OR NO CLOUDS BELOW 12,000 FEET WITH NO
SIGNIFICANT WEATHER AND/OR OBSTRUCTIONS TO VISIBILITY.

...SOUTH CENTRAL NEBRASKA...

CITY           SKY/WX    TMP DP  RH WIND       PRES   REMARKS
GRAND ISLAND   CLOUDY    61  58  90 SE8       30.04S
HASTINGS       CLOUDY    60  58  92 SE7       30.04R
KEARNEY        CLOUDY    57  55  94 E7        30.04R
ORD            MOCLDY    55  53  93 CALM      30.02S FOG
YORK           CLOUDY    63  57  82 SE7       30.06R
AURORA         CLOUDY    59  58  94 S5        30.05S
LEXINGTON      FOG       53  52  97 CALM      30.03F VSB<1/4
HOLDREGE       CLOUDY    56  54  93 CALM      30.04R
HEBRON         CLOUDY    63  60  91 E5        30.05R

...NEBRASKA PANHANDLE...

CITY           SKY/WX    TMP DP  RH WIND       PRES   REMARKS
CHADRON        PTCLDY    57  53  86 W7        29.96R
ALLIANCE       MOCLDY    52  50  93 SW5       29.98S
SCOTTSBLUFF    CLEAR     50  49  96 E3        30.01R
SIDNEY         MOCLDY    54  53  97 S8        30.01F

...WESTERN AND NORTH CENTRAL NEBRASKA...

CITY           SKY/WX    TMP DP  RH WIND       PRES   REMARKS
VALENTINE      MOCLDY    58  55  90 S9        29.98S
AINSWORTH      PTCLDY    59  58  98 S8        30.00F
ONEILL         CLOUDY    61  58  88 S6        30.03R
BROKEN BOW     FOG       56  54  93 CALM      30.02F VSB 1/2
IMPERIAL       MOCLDY    52  51  97 SE6       30.02F
NORTH PLATTE   FOG       54  53  97 E9        30.03S VSB 1/4
MCCOOK         CLOUDY    54  52  93 SE5       30.02S

...EASTERN NEBRASKA...

CITY           SKY/WX    TMP DP  RH WIND       PRES   REMARKS
NORFOLK        MOCLDY    64  54  69 SE12      30.04R
SO SIOUX CITY  PTSUNNY   60  53  77 SE8       30.06R
TEKAMAH        CLOUDY    58  53  84 CALM      30.07R
COLUMBUS       MOCLDY    63  52  67 SE5       30.07R
ALBION         CLOUDY    61  54  77 SE6       30.04S
OMAHA EPPLEY   CLOUDY    62  55  77 SE6       30.07R
OFFUTT AFB     CLOUDY    60  55  82 E6        30.07R
MILLARD        CLOUDY    59  55  87 CALM      30.06S
LINCOLN        LGT RAIN  63  60  90 S13       30.07R
NEBRASKA CITY  CLOUDY    63  53  71 S6        30.08R
BEATRICE       CLOUDY    62  60  94 SE10      30.08R
FALLS CITY     NOT AVBL

...NORTHERN KANSAS...

CITY           SKY/WX    TMP DP  RH WIND       PRES   REMARKS
GOODLAND       CLOUDY    59  58  96 SW18G25   30.00F
HILL CITY      CLOUDY    57  54  89 NE3       30.01F
NORTON         SUNNY     55  52  88 CALM      30.01S
PHILLIPSBURG   CLEAR     59  59 100 E3        30.02R FOG
HAYS           CLOUDY    57  50  77 E8        30.00S
RUSSELL        CLOUDY    59  57  93 E8        29.99F
CONCORDIA      LGT RAIN  62  61  96 SE7       30.02F
SALINA         CLOUDY    64  61  90 SE12      30.04S
TOPEKA         RAIN      64  63  96 CALM      30.10F FOG



USA.gov is the U.S. government's official web portal to all federal, state and local government web resources and services.